Regional Weather Roundup
Issued by NWS

Home | Current Version | Previous Version | Text Only | Print | Product List | Glossary On
Versions: 1 2 3 4 5 6 7 8 9 10 11 12 13 14 15 16 17 18 19 20 21 22 23 24 25 26 27 28 29 30 31 32 33 34 35 36 37 38 39 40 41 42 43 44 45 46 47 48 49 50
000
ASUS46 KSTO 291015
RWRCA

NORTHERN AND CENTRAL CA REGIONAL WEATHER ROUNDUP
NATIONAL WEATHER SERVICE SACRAMENTO CA
300 AM PDT SAT APR 29 2017

NOTE: FAIR INDICATES FEW OR NO CLOUDS BELOW 12,000 FEET WITH NO
SIGNIFICANT WEATHER AND/OR OBSTRUCTIONS TO VISIBILITY.

CAZ001-003-291100-
NORTHWEST AREA

CITY           SKY/WX    TMP DP  RH WIND       PRES   REMARKS
CRESCENT CITY  CLEAR     47  45  93 S5        30.23S
UKIAH          CLEAR     46  42  86 CALM      30.15R
$$

CAZ006-505>513-291100-
BAY AREA

CITY           SKY/WX    TMP DP  RH WIND       PRES   REMARKS
SANTA ROSA     CLEAR     52  42  69 N9        30.08S
SAN RAFAEL     N/A       62  MM  MM MISG
NAPA           CLEAR     60  32  34 N14       30.06S
CONCORD        CLEAR     53  38  56 CALM      30.06R
OAKLAND CITY   N/A      MM  MM  MM MISG
OAKLAND        CLEAR     62  37  39 N8        30.06R
SAN FRAN CITY  N/A       MM  MM  MM MISG
SAN FRAN ARPT  CLEAR     64  36  35 N10       30.06R
LIVERMORE      CLEAR     52  35  52 CALM      30.05S
HAYWARD        CLEAR     56  43  61 CALM      30.06R
REDWOOD CITY   N/A       51  MM  62 MISG
MOFFETT ARPT   CLEAR     60  35  39 W6        30.06S
SAN JOSE ARPT  CLEAR     55  47  74 CALM      30.05S
$$
CAZ034-037-514>518-291100-
CENTRAL COAST

CITY           SKY/WX    TMP DP  RH WIND       PRES   REMARKS
WATSONVILLE    CLEAR     46  45  96 VRB6      30.05S FOG
SALINAS        CLEAR     51  46  83 CALM      30.04S
MONTEREY       CLEAR     50  38  63 E6        30.04F
SAN LUIS OBISP CLEAR     50  41  71 SE5       30.00R
SANTA MARIA    CLEAR     44  42  93 CALM      30.00R
$$
CAZ015-016-291100-
NORTHERN SACRAMENTO VALLEY

CITY           SKY/WX    TMP DP  RH WIND       PRES   REMARKS
REDDING        CLEAR     48  38  68 N5        30.15S
RED BLUFF      CLEAR     51  35  54 NW10      30.14S
OROVILLE       CLEAR     52  35  52 N7        30.11S
$$
CAZ016>018-291100-
SOUTHERN SACRAMENTO VALLEY

CITY           SKY/WX    TMP DP  RH WIND       PRES   REMARKS
AUBURN         CLEAR     48  27  43 E7        30.06F
BEALE AFB      CLEAR     52  33  49 NE13      30.06R
LINCOLN        FAIR      46  34  61 N7        30.04S
MARYSVILLE     CLEAR     52  36  54 N10       30.08R
SAC INTL ARPT  CLEAR     49  40  71 NW9       30.05R
MATHER AIRPORT CLEAR    N/A N/A N/A NE5       30.03
DOWNTOWN SAC   N/A       56  MM  MM MISG
SAC EXEC ARPT  CLEAR     53  37  54 NW7       30.04S
VACAVILLE      CLEAR     63  28  26 N13       30.06R
TRAVIS AFB     CLEAR     56  32  39 N12       30.03R
$$
CAZ019>021-291100-
SAN JOAQUIN VALLEY

CITY           SKY/WX    TMP DP  RH WIND       PRES   REMARKS
STOCKTON       CLEAR     54  37  52 NW12      30.01S
MODESTO        CLEAR     54  38  54 NW7       30.01R
MERCED         CLEAR     50  36  58 CALM      29.99R
LEMOORE        CLEAR     53  28  38 N12       29.99R
FRESNO         PTCLDY    50  41  71 E5        30.00R
HANFORD        CLEAR     53  36  52 NW7       29.99R
PORTERVILLE      N/A     48  35  60 S8        30.01S
BAKERSFIELD    CLEAR     58  33  39 E5        30.01S
$$
CAZ011-012-071-291100-
NORTHERN MOUNTAINS

CITY           SKY/WX    TMP DP  RH WIND       PRES   REMARKS
YREKA          CLEAR     35  30  82 CALM      30.25S
MOUNT SHASTA   CLEAR     32  26  78 CALM      30.22F
ALTURAS        CLEAR     28  25  88 CALM      30.24R
$$
CAZ011-012-071-291100-
SIERRA NEVADA MTNS

CITY           SKY/WX    TMP DP  RH WIND       PRES   REMARKS
BLUE CANYON    CLEAR     41  13  31 NE12G22   30.11S
TRUCKEE        CLEAR     28  14  54 SW3       30.19S
TAHOE VLY ARPT CLEAR     37  11  34 MISG      30.17R
MAMMOTH LAKES  FAIR      27  14  57 W5        30.23S WCI  22
$$



USA.gov is the U.S. government's official web portal to all federal, state and local government web resources and services.